When you browse on this site, cookies collect data to enhance your experience and personalize the content and advertising you see.
Visit our Privacy Policy to learn more. By continuing to use the site, you agree to this use of cookies and data.
  • In United Kingdom
  • List of Countries
  • For 7 days
  • Water Temperature
  • Satellite Maps
  • Weather Map
  • Weather Widgets
  • user-avatar
    Login

    Hourly Weather Mokhotlong

    Today, 23 April, Tuesday

    Time Temperature Precipitation Wind Pressure Humidity
    00:00 +9°C° 0.5 mm 1 mps 586 mmHg 90%
    01:00 +9°C° 0.5 mm 1 mps 586 mmHg 91%
    02:00 +9°C° 0 mm 1 mps 586 mmHg 91%
    03:00 +9°C° 1.4 mm 1 mps 586 mmHg 91%
    04:00 +9°C° 1.4 mm 1 mps 586 mmHg 91%
    05:00 +9°C° 1.4 mm 1 mps 586 mmHg 91%
    06:00 +9°C° 2 mm 1 mps 586 mmHg 90%
    07:00 +9°C° 2 mm 1 mps 587 mmHg 90%
    08:00 +10°C° 0 mm 1 mps 587 mmHg 88%
    09:00 +10°C° 3 mm 1 mps 587 mmHg 87%
    10:00 +10°C° 3 mm 1 mps 587 mmHg 87%
    11:00 +10°C° 3 mm 1 mps 587 mmHg 87%
    12:00 +10°C° 0.7 mm 0 mps 587 mmHg 82%
    13:00 +11°C° 0.7 mm 0 mps 587 mmHg 78%
    14:00 +11°C° 0 mm 0 mps 587 mmHg 75%
    15:00 +12°C° 0 mm 0 mps 587 mmHg 75%
    16:00 +12°C° 0 mm 0 mps 587 mmHg 74%
    17:00 +12°C° 0 mm 0 mps 587 mmHg 74%
    18:00 +12°C° 0 mm 1 mps 587 mmHg 79%
    19:00 +11°C° 0 mm 1 mps 587 mmHg 83%
    20:00 +10°C° 0 mm 1 mps 586 mmHg 88%
    21:00 +10°C° 0 mm 1 mps 587 mmHg 88%
    22:00 +10°C° 0 mm 1 mps 587 mmHg 89%
    23:00 +10°C° 0 mm 1 mps 587 mmHg 89%

    Tomorrow, 24 April, Wednesday

    Time Temperature Precipitation Wind Pressure Humidity
    00:00 +10°C° 0.2 mm 1 mps 587 mmHg 90%
    01:00 +10°C° 0.2 mm 1 mps 587 mmHg 90%
    02:00 +10°C° 0.2 mm 1 mps 587 mmHg 90%
    03:00 +10°C° 0.4 mm 1 mps 586 mmHg 91%
    04:00 +10°C° 0.4 mm 1 mps 586 mmHg 92%
    05:00 +9°C° 0.4 mm 2 mps 586 mmHg 92%
    06:00 +10°C° 1 mm 1 mps 586 mmHg 92%
    07:00 +10°C° 1 mm 1 mps 586 mmHg 91%
    08:00 +11°C° 1 mm 1 mps 586 mmHg 91%
    09:00 +12°C° 0.3 mm 2 mps 587 mmHg 84%
    10:00 +13°C° 0.3 mm 2 mps 587 mmHg 77%
    11:00 +13°C° 0.3 mm 3 mps 588 mmHg 70%
    12:00 +14°C° 0.4 mm 3 mps 587 mmHg 67%
    13:00 +14°C° 0.4 mm 3 mps 587 mmHg 63%
    14:00 +16°C° 0.4 mm 3 mps 587 mmHg 60%
    15:00 +14°C° 0.3 mm 3 mps 586 mmHg 60%
    16:00 +15°C° 0.3 mm 2 mps 586 mmHg 61%
    17:00 +14°C° 0.3 mm 2 mps 586 mmHg 62%
    18:00 +13°C° 0.2 mm 2 mps 586 mmHg 68%
    19:00 +12°C° 0.2 mm 2 mps 586 mmHg 73%
    20:00 +11°C° 0.2 mm 1 mps 585 mmHg 78%
    21:00 +10°C° 0 mm 1 mps 585 mmHg 78%
    22:00 +9°C° 0 mm 2 mps 585 mmHg 77%
    23:00 +8°C° 0 mm 2 mps 584 mmHg 77%

    Day after tomorrow, 25 April, Thursday

    Time Temperature Precipitation Wind Pressure Humidity
    00:00 +8°C° 0 mm 2 mps 584 mmHg 76%
    01:00 +8°C° 0 mm 2 mps 584 mmHg 75%
    02:00 +7°C° 0 mm 2 mps 583 mmHg 75%
    03:00 +7°C° 0 mm 2 mps 583 mmHg 75%
    04:00 +7°C° 0 mm 2 mps 583 mmHg 75%
    05:00 +6°C° 0 mm 2 mps 583 mmHg 75%
    06:00 +8°C° 0 mm 2 mps 583 mmHg 70%
    07:00 +9°C° 0 mm 2 mps 584 mmHg 65%
    08:00 +10°C° 0 mm 2 mps 585 mmHg 60%
    09:00 +12°C° 0 mm 3 mps 586 mmHg 54%
    10:00 +13°C° 0 mm 3 mps 586 mmHg 47%
    11:00 +15°C° 0 mm 4 mps 586 mmHg 40%
    12:00 +15°C° 0 mm 4 mps 586 mmHg 37%
    13:00 +16°C° 0 mm 5 mps 586 mmHg 34%
    14:00 +17°C° 0 mm 5 mps 585 mmHg 31%
    15:00 +17°C° 0 mm 4 mps 585 mmHg 36%
    16:00 +15°C° 0 mm 4 mps 585 mmHg 41%
    17:00 +14°C° 0 mm 3 mps 584 mmHg 46%
    18:00 +13°C° 0 mm 2 mps 584 mmHg 50%
    19:00 +10°C° 0 mm 2 mps 584 mmHg 55%
    20:00 +9°C° 0 mm 2 mps 583 mmHg 59%
    21:00 +8°C° 0 mm 2 mps 583 mmHg 58%
    22:00 +8°C° 0 mm 2 mps 583 mmHg 57%
    23:00 +7°C° 0 mm 2 mps 583 mmHg 57%

    26 April, Friday

    Time Temperature Precipitation Wind Pressure Humidity
    00:00 +7°C° 0 mm 2 mps 583 mmHg 56%
    01:00 +6°C° 0 mm 2 mps 583 mmHg 55%
    02:00 +6°C° 0 mm 2 mps 582 mmHg 54%
    03:00 +6°C° 0 mm 2 mps 582 mmHg 53%
    04:00 +7°C° 0 mm 1 mps 582 mmHg 52%
    05:00 +6°C° 0 mm 1 mps 581 mmHg 51%
    06:00 +8°C° 0 mm 1 mps 583 mmHg 47%
    07:00 +10°C° 0 mm 1 mps 584 mmHg 43%
    08:00 +12°C° 0 mm 1 mps 585 mmHg 39%
    09:00 +13°C° 0 mm 1 mps 586 mmHg 36%
    10:00 +15°C° 0 mm 1 mps 587 mmHg 33%
    11:00 +18°C° 0 mm 1 mps 587 mmHg 29%
    12:00 +18°C° 0 mm 1 mps 587 mmHg 29%
    13:00 +19°C° 0 mm 1 mps 587 mmHg 29%
    14:00 +20°C° 0 mm 1 mps 587 mmHg 29%
    15:00 +19°C° 0 mm 1 mps 586 mmHg 37%
    16:00 +18°C° 0 mm 1 mps 586 mmHg 45%
    17:00 +15°C° 0 mm 0 mps 586 mmHg 53%
    18:00 +14°C° 0 mm 1 mps 585 mmHg 56%
    19:00 +12°C° 0 mm 1 mps 585 mmHg 59%
    20:00 +10°C° 0 mm 1 mps 584 mmHg 62%
    21:00 +10°C° 0 mm 1 mps 584 mmHg 62%
    22:00 +10°C° 0 mm 1 mps 584 mmHg 63%
    23:00 +9°C° 0 mm 1 mps 584 mmHg 63%

    27 April, Saturday

    Time Temperature Precipitation Wind Pressure Humidity
    00:00 +9°C° 0 mm 1 mps 584 mmHg 64%
    01:00 +9°C° 0 mm 1 mps 584 mmHg 64%
    02:00 +8°C° 0 mm 1 mps 583 mmHg 65%
    03:00 +8°C° 0 mm 1 mps 583 mmHg 64%
    04:00 +8°C° 0 mm 1 mps 583 mmHg 63%
    05:00 +7°C° 0 mm 1 mps 583 mmHg 62%
    06:00 +10°C° 0 mm 1 mps 584 mmHg 54%
    07:00 +12°C° 0 mm 1 mps 586 mmHg 47%
    08:00 +14°C° 0 mm 1 mps 587 mmHg 39%
    09:00 +16°C° 0 mm 1 mps 588 mmHg 33%
    10:00 +19°C° 0 mm 1 mps 589 mmHg 26%
    11:00 +21°C° 0 mm 1 mps 589 mmHg 20%
    12:00 +21°C° 0 mm 1 mps 589 mmHg 20%
    13:00 +21°C° 0 mm 2 mps 589 mmHg 20%
    14:00 +21°C° 0 mm 2 mps 588 mmHg 20%
    15:00 +21°C° 0 mm 1 mps 588 mmHg 28%
    16:00 +20°C° 0 mm 1 mps 587 mmHg 36%
    17:00 +18°C° 0 mm 1 mps 587 mmHg 45%
    18:00 +15°C° 0 mm 1 mps 587 mmHg 46%
    19:00 +13°C° 0 mm 1 mps 586 mmHg 47%
    20:00 +11°C° 0 mm 1 mps 586 mmHg 48%
    21:00 +11°C° 0 mm 1 mps 585 mmHg 46%
    22:00 +10°C° 0 mm 1 mps 585 mmHg 44%
    23:00 +10°C° 0 mm 1 mps 585 mmHg 42%

    28 April, Sunday

    Time Temperature Precipitation Wind Pressure Humidity
    00:00 +9°C° 0 mm 1 mps 585 mmHg 42%
    01:00 +9°C° 0 mm 1 mps 585 mmHg 42%
    02:00 +8°C° 0 mm 1 mps 585 mmHg 42%
    03:00 +8°C° 0 mm 1 mps 585 mmHg 45%
    04:00 +8°C° 0 mm 1 mps 585 mmHg 49%
    05:00 +6°C° 0 mm 0 mps 585 mmHg 52%
    06:00 +10°C° 0 mm 1 mps 586 mmHg 46%
    07:00 +12°C° 0 mm 1 mps 588 mmHg 41%
    08:00 +14°C° 0 mm 1 mps 590 mmHg 35%
    09:00 +16°C° 0 mm 1 mps 590 mmHg 33%
    10:00 +18°C° 0 mm 1 mps 591 mmHg 32%
    11:00 +18°C° 0 mm 2 mps 592 mmHg 30%
    12:00 +19°C° 0 mm 2 mps 591 mmHg 31%
    13:00 +20°C° 0 mm 1 mps 591 mmHg 31%
    14:00 +21°C° 0 mm 1 mps 591 mmHg 32%
    15:00 +19°C° 0 mm 2 mps 591 mmHg 41%
    16:00 +18°C° 0 mm 2 mps 591 mmHg 49%
    17:00 +17°C° 0 mm 2 mps 590 mmHg 58%
    18:00 +15°C° 0 mm 2 mps 590 mmHg 68%
    19:00 +14°C° 0 mm 2 mps 590 mmHg 78%
    20:00 +12°C° 0 mm 2 mps 589 mmHg 88%
    21:00 +12°C° 0 mm 2 mps 589 mmHg 88%
    22:00 +10°C° 0 mm 2 mps 589 mmHg 89%
    23:00 +10°C° 0 mm 2 mps 589 mmHg 90%
    Show more